Вернуться в каталог

STARLINK-32627

АктивенСвязьVLEO
NORAD 62315·PAYLOAD·🇺🇸 United States

Запущен Dec 13, 2024 с Vandenberg Space Force Base

Loading…

Ближайшие Пролёты (ближайшие 24 часа)

TLE

СвежийSource: CelesTrak SupGP

Эпоха: Sep 15, 2026, 02:51 UTC

1 62315C 24239Q   26258.11923611  .00015665  00000+0  46300-3 0  2580
2 62315  53.1604  31.0398 0000903  78.5175  80.5397 15.34371065    15

Отслеживайте STARLINK-32627 в реальном времени с AllMySat

Download on the App Store